Time,TemperatureF,DewpointF,PressureIn,WindDirection,WindDirectionDegrees,WindSpeedMPH,WindSpeedGustMPH,Humidity,HourlyPrecipIn,Conditions,Clouds,dailyrainin,SoftwareType,DateUTC
2013-02-03 00:00:00,17.5,16.0,29.58,SSE,157,0.0,0.0,92,0.00,,,0.00,Rainwise IP-100,2013-02-03 05:00:00,
2013-02-03 00:01:00,17.5,16.0,29.58,SSE,157,0.0,0.0,92,0.00,,,0.00,Rainwise IP-100,2013-02-03 05:01:00,
2013-02-03 00:06:00,17.5,16.0,29.58,SSE,157,0.0,0.0,92,0.00,,,0.00,Rainwise IP-100,2013-02-03 05:06:00,
2013-02-03 00:11:00,17.5,16.0,29.57,SSE,157,0.0,0.0,92,0.00,,,0.00,Rainwise IP-100,2013-02-03 05:11:00,
2013-02-03 00:16:00,17.4,16.0,29.57,SSE,157,0.0,0.0,92,0.00,,,0.00,Rainwise IP-100,2013-02-03 05:16:00,
2013-02-03 00:21:00,17.1,16.0,29.58,SSE,157,0.0,0.0,92,0.00,,,0.00,Rainwise IP-100,2013-02-03 05:21:00,
2013-02-03 00:26:00,16.9,16.0,29.57,WNW,292,1.9,2.1,92,0.00,,,0.00,Rainwise IP-100,2013-02-03 05:26:00,
2013-02-03 00:31:00,16.9,16.0,29.58,WNW,292,0.0,2.3,93,0.00,,,0.00,Rainwise IP-100,2013-02-03 05:31:00,
2013-02-03 00:36:00,16.9,16.0,29.57,WNW,292,1.4,1.9,93,0.00,,,0.00,Rainwise IP-100,2013-02-03 05:36:00,
2013-02-03 00:41:00,16.9,16.0,29.57,WNW,292,0.0,1.6,93,0.00,,,0.00,Rainwise IP-100,2013-02-03 05:41:00,
2013-02-03 00:46:00,17.0,16.0,29.57,WNW,292,0.0,2.3,93,0.00,,,0.00,Rainwise IP-100,2013-02-03 05:46:00,
2013-02-03 00:51:00,16.9,16.0,29.57,WNW,292,0.0,0.0,93,0.00,,,0.00,Rainwise IP-100,2013-02-03 05:51:00,
2013-02-03 00:56:00,16.7,16.0,29.57,WNW,292,0.0,0.0,93,0.00,,,0.00,Rainwise IP-100,2013-02-03 05:56:00,
2013-02-03 01:01:00,16.5,16.0,29.57,WNW,292,0.0,0.0,93,0.00,,,0.00,Rainwise IP-100,2013-02-03 06:01:00,
2013-02-03 01:07:00,16.5,16.0,29.57,WNW,292,0.0,0.0,93,0.00,,,0.00,Rainwise IP-100,2013-02-03 06:07:00,
2013-02-03 01:12:00,16.5,16.0,29.57,WNW,292,0.0,1.2,93,0.00,,,0.00,Rainwise IP-100,2013-02-03 06:12:00,
2013-02-03 01:15:00,16.4,14.0,29.57,WNW,292,0.0,1.2,93,0.00,,,0.00,Rainwise IP-100,2013-02-03 06:15:00,
2013-02-03 01:20:00,16.2,14.0,29.57,WNW,292,0.0,0.0,93,0.00,,,0.00,Rainwise IP-100,2013-02-03 06:20:00,
2013-02-03 01:25:00,16.1,14.0,29.57,WNW,292,0.0,0.0,93,0.00,,,0.00,Rainwise IP-100,2013-02-03 06:25:00,
2013-02-03 01:30:00,16.1,14.0,29.57,WNW,292,0.0,0.0,93,0.00,,,0.00,Rainwise IP-100,2013-02-03 06:30:00,
2013-02-03 01:35:00,16.1,14.0,29.57,WNW,292,0.0,0.0,94,0.00,,,0.00,Rainwise IP-100,2013-02-03 06:35:00,
2013-02-03 01:40:00,16.0,14.0,29.57,WNW,292,0.0,1.4,94,0.00,,,0.00,Rainwise IP-100,2013-02-03 06:40:00,
2013-02-03 01:45:00,16.2,14.0,29.57,WNW,292,2.3,2.3,94,0.00,,,0.00,Rainwise IP-100,2013-02-03 06:45:00,
2013-02-03 01:51:00,16.4,14.0,29.57,WNW,292,0.0,2.8,93,0.00,,,0.00,Rainwise IP-100,2013-02-03 06:51:00,
2013-02-03 01:56:00,16.5,16.0,29.57,WNW,292,0.0,2.1,93,0.00,,,0.00,Rainwise IP-100,2013-02-03 06:56:00,
2013-02-03 02:01:00,16.2,14.0,29.57,WNW,292,0.0,1.4,93,0.00,,,0.00,Rainwise IP-100,2013-02-03 07:01:00,
2013-02-03 02:06:00,16.0,14.0,29.57,WNW,292,0.0,2.8,93,0.00,,,0.00,Rainwise IP-100,2013-02-03 07:06:00,
2013-02-03 02:11:00,15.9,14.0,29.56,WNW,292,0.0,1.6,93,0.00,,,0.00,Rainwise IP-100,2013-02-03 07:11:00,
2013-02-03 02:16:00,15.8,14.0,29.56,WNW,292,0.0,0.0,93,0.00,,,0.00,Rainwise IP-100,2013-02-03 07:16:00,
2013-02-03 02:21:00,15.6,14.0,29.56,WNW,292,0.0,0.0,93,0.00,,,0.00,Rainwise IP-100,2013-02-03 07:21:00,
2013-02-03 02:26:00,15.4,14.0,29.56,NNE,22,0.0,1.9,93,0.00,,,0.00,Rainwise IP-100,2013-02-03 07:26:00,
2013-02-03 02:31:00,15.2,14.0,29.56,NNE,22,1.2,1.4,93,0.00,,,0.00,Rainwise IP-100,2013-02-03 07:31:00,
2013-02-03 02:36:00,15.0,14.0,29.56,NNW,337,3.0,3.0,93,0.00,,,0.00,Rainwise IP-100,2013-02-03 07:36:00,
2013-02-03 02:41:00,15.0,14.0,29.56,NNW,337,0.0,3.3,93,0.00,,,0.00,Rainwise IP-100,2013-02-03 07:41:00,
2013-02-03 02:46:00,15.0,14.0,29.55,NNW,337,0.0,2.6,93,0.00,,,0.00,Rainwise IP-100,2013-02-03 07:46:00,
2013-02-03 02:51:00,14.9,14.0,29.56,NNW,337,0.0,1.9,93,0.00,,,0.00,Rainwise IP-100,2013-02-03 07:51:00,
2013-02-03 02:56:00,14.8,14.0,29.55,NNW,337,2.3,3.0,93,0.00,,,0.00,Rainwise IP-100,2013-02-03 07:56:00,
2013-02-03 03:01:00,14.6,14.0,29.55,NNW,337,2.8,3.3,93,0.00,,,0.00,Rainwise IP-100,2013-02-03 08:01:00,
2013-02-03 03:07:00,14.5,14.0,29.55,North,360,3.7,3.7,93,0.00,,,0.00,Rainwise IP-100,2013-02-03 08:07:00,
2013-02-03 03:12:00,14.5,14.0,29.55,NNW,337,3.7,5.8,93,0.00,,,0.00,Rainwise IP-100,2013-02-03 08:12:00,
2013-02-03 03:17:00,14.4,11.0,29.55,NNW,337,1.2,4.2,93,0.00,,,0.00,Rainwise IP-100,2013-02-03 08:17:00,
2013-02-03 03:22:00,14.4,11.0,29.54,NNW,337,2.6,4.4,92,0.00,,,0.00,Rainwise IP-100,2013-02-03 08:22:00,
2013-02-03 03:27:00,14.3,11.0,29.54,NNW,337,0.0,5.8,92,0.00,,,0.00,Rainwise IP-100,2013-02-03 08:27:00,
2013-02-03 03:32:00,14.1,11.0,29.54,NNW,337,0.0,1.4,92,0.00,,,0.00,Rainwise IP-100,2013-02-03 08:32:00,
2013-02-03 03:37:00,13.9,11.0,29.54,NNW,337,3.0,4.0,92,0.00,,,0.00,Rainwise IP-100,2013-02-03 08:37:00,
2013-02-03 03:42:00,13.7,11.0,29.54,NNW,337,3.7,4.2,92,0.00,,,0.00,Rainwise IP-100,2013-02-03 08:42:00,
2013-02-03 03:47:00,13.8,11.0,29.54,NNW,337,0.0,4.2,92,0.00,,,0.00,Rainwise IP-100,2013-02-03 08:47:00,
2013-02-03 03:52:00,13.9,11.0,29.54,NNW,337,3.5,4.2,92,0.00,,,0.00,Rainwise IP-100,2013-02-03 08:52:00,
2013-02-03 03:57:00,13.8,11.0,29.54,NNW,337,1.9,4.0,92,0.00,,,0.00,Rainwise IP-100,2013-02-03 08:57:00,
2013-02-03 04:02:00,13.6,11.0,29.54,NNW,337,3.0,4.2,92,0.00,,,0.00,Rainwise IP-100,2013-02-03 09:02:00,
2013-02-03 04:07:00,13.6,11.0,29.53,NNW,337,2.3,4.2,92,0.00,,,0.00,Rainwise IP-100,2013-02-03 09:07:00,
2013-02-03 04:12:00,13.6,11.0,29.54,NNW,337,1.2,4.2,92,0.00,,,0.00,Rainwise IP-100,2013-02-03 09:12:00,
2013-02-03 04:17:00,13.4,11.0,29.53,NNW,337,1.2,2.8,92,0.00,,,0.00,Rainwise IP-100,2013-02-03 09:17:00,
2013-02-03 04:23:00,13.2,11.0,29.53,NNW,337,0.0,2.1,92,0.00,,,0.00,Rainwise IP-100,2013-02-03 09:23:00,
2013-02-03 04:28:00,13.1,11.0,29.54,NNW,337,3.3,3.3,92,0.00,,,0.00,Rainwise IP-100,2013-02-03 09:28:00,
2013-02-03 04:33:00,13.2,11.0,29.53,NNW,337,3.3,6.1,92,0.00,,,0.00,Rainwise IP-100,2013-02-03 09:33:00,
2013-02-03 04:38:00,13.3,11.0,29.54,NNW,337,4.7,4.7,92,0.00,,,0.00,Rainwise IP-100,2013-02-03 09:38:00,
2013-02-03 04:43:00,13.3,11.0,29.53,NNW,337,2.3,4.9,92,0.00,,,0.00,Rainwise IP-100,2013-02-03 09:43:00,
2013-02-03 04:48:00,13.4,11.0,29.53,NNW,337,2.1,3.7,92,0.00,,,0.00,Rainwise IP-100,2013-02-03 09:48:00,
2013-02-03 04:53:00,13.4,11.0,29.54,NNW,337,4.0,6.3,92,0.00,,,0.00,Rainwise IP-100,2013-02-03 09:53:00,
2013-02-03 04:58:00,13.3,11.0,29.53,NNW,337,4.0,5.4,91,0.00,,,0.00,Rainwise IP-100,2013-02-03 09:58:00,
2013-02-03 05:03:00,13.3,11.0,29.53,NNW,337,3.3,6.3,91,0.00,,,0.00,Rainwise IP-100,2013-02-03 10:03:00,
2013-02-03 05:08:00,13.4,11.0,29.53,NNW,337,3.0,4.9,91,0.00,,,0.00,Rainwise IP-100,2013-02-03 10:08:00,
2013-02-03 05:13:00,13.5,11.0,29.53,NW,315,4.4,4.7,92,0.00,,,0.00,Rainwise IP-100,2013-02-03 10:13:00,
2013-02-03 05:18:00,13.6,11.0,29.53,NNW,337,3.3,5.6,92,0.00,,,0.00,Rainwise IP-100,2013-02-03 10:18:00,
2013-02-03 05:23:00,13.7,11.0,29.53,NNW,337,2.6,4.2,92,0.00,,,0.00,Rainwise IP-100,2013-02-03 10:23:00,
2013-02-03 05:28:00,13.7,11.0,29.53,NNW,337,3.5,5.6,92,0.00,,,0.00,Rainwise IP-100,2013-02-03 10:28:00,
2013-02-03 05:33:00,13.7,11.0,29.53,NNW,337,5.8,6.1,92,0.00,,,0.00,Rainwise IP-100,2013-02-03 10:33:00,
2013-02-03 05:39:00,13.7,11.0,29.53,NW,315,2.8,6.8,92,0.00,,,0.00,Rainwise IP-100,2013-02-03 10:39:00,
2013-02-03 05:44:00,13.8,11.0,29.53,North,360,4.4,6.5,92,0.00,,,0.00,Rainwise IP-100,2013-02-03 10:44:00,
2013-02-03 05:49:00,13.8,11.0,29.53,NNW,337,2.3,6.3,92,0.00,,,0.00,Rainwise IP-100,2013-02-03 10:49:00,
2013-02-03 05:54:00,13.7,11.0,29.53,NNE,22,3.0,5.8,92,0.00,,,0.00,Rainwise IP-100,2013-02-03 10:54:00,
2013-02-03 05:59:00,13.7,11.0,29.53,WNW,292,1.6,7.0,92,0.00,,,0.00,Rainwise IP-100,2013-02-03 10:59:00,
2013-02-03 06:04:00,13.7,11.0,29.53,WNW,292,1.9,6.5,92,0.00,,,0.00,Rainwise IP-100,2013-02-03 11:04:00,
2013-02-03 06:09:00,13.7,11.0,29.53,NNW,337,4.2,7.0,92,0.00,,,0.00,Rainwise IP-100,2013-02-03 11:09:00,
2013-02-03 06:14:00,13.7,11.0,29.53,NNW,337,3.0,6.1,92,0.00,,,0.00,Rainwise IP-100,2013-02-03 11:14:00,
2013-02-03 06:19:00,13.7,11.0,29.53,NNW,337,2.3,7.0,92,0.00,,,0.00,Rainwise IP-100,2013-02-03 11:19:00,
2013-02-03 06:24:00,13.7,11.0,29.53,NNW,337,3.0,7.2,93,0.00,,,0.00,Rainwise IP-100,2013-02-03 11:24:00,
2013-02-03 06:29:00,13.8,11.0,29.53,NNW,337,2.1,6.8,93,0.00,,,0.00,Rainwise IP-100,2013-02-03 11:29:00,
2013-02-03 06:34:00,13.7,11.0,29.53,NNE,22,3.3,6.8,93,0.00,,,0.00,Rainwise IP-100,2013-02-03 11:34:00,
2013-02-03 06:39:00,13.7,11.0,29.53,NNW,337,4.9,4.9,93,0.00,,,0.00,Rainwise IP-100,2013-02-03 11:39:00,
2013-02-03 06:44:00,13.7,11.0,29.53,NNW,337,1.4,5.1,93,0.00,,,0.00,Rainwise IP-100,2013-02-03 11:44:00,
2013-02-03 06:49:00,13.6,11.0,29.53,North,360,2.6,7.7,93,0.00,,,0.00,Rainwise IP-100,2013-02-03 11:49:00,
2013-02-03 06:55:00,13.6,11.0,29.53,North,360,0.0,7.7,93,0.00,,,0.00,Rainwise IP-100,2013-02-03 11:55:00,
2013-02-03 07:00:00,13.5,11.0,29.53,North,360,3.0,6.5,92,0.00,,,0.00,Rainwise IP-100,2013-02-03 12:00:00,
2013-02-03 07:05:00,13.5,11.0,29.53,NNW,337,4.0,7.0,92,0.00,,,0.00,Rainwise IP-100,2013-02-03 12:05:00,
2013-02-03 07:10:00,13.5,11.0,29.53,NNW,337,3.5,6.3,92,0.00,,,0.00,Rainwise IP-100,2013-02-03 12:10:00,
2013-02-03 07:15:00,13.4,11.0,29.53,NNE,22,4.9,7.0,92,0.00,,,0.00,Rainwise IP-100,2013-02-03 12:15:00,
2013-02-03 07:20:00,13.4,11.0,29.53,North,360,3.5,8.2,92,0.00,,,0.00,Rainwise IP-100,2013-02-03 12:20:00,
2013-02-03 07:25:00,13.4,11.0,29.53,NNW,337,3.5,8.6,92,0.00,,,0.00,Rainwise IP-100,2013-02-03 12:25:00,
2013-02-03 07:30:00,13.5,11.0,29.53,NNW,337,6.8,7.0,92,0.00,,,0.00,Rainwise IP-100,2013-02-03 12:30:00,
2013-02-03 07:35:00,13.5,11.0,29.53,NNE,22,4.0,6.8,92,0.00,,,0.00,Rainwise IP-100,2013-02-03 12:35:00,
2013-02-03 07:40:00,13.7,11.0,29.53,NNW,337,3.3,6.8,92,0.00,,,0.00,Rainwise IP-100,2013-02-03 12:40:00,
2013-02-03 07:45:00,13.8,11.0,29.53,North,360,5.1,7.5,92,0.00,,,0.00,Rainwise IP-100,2013-02-03 12:45:00,
2013-02-03 07:50:00,13.8,11.0,29.53,NNW,337,3.7,7.5,92,0.00,,,0.00,Rainwise IP-100,2013-02-03 12:50:00,
2013-02-03 07:55:00,13.9,11.0,29.53,WNW,292,3.7,5.6,91,0.00,,,0.00,Rainwise IP-100,2013-02-03 12:55:00,
2013-02-03 08:00:00,14.1,11.0,29.53,NNW,337,3.3,7.7,91,0.00,,,0.00,Rainwise IP-100,2013-02-03 13:00:00,
2013-02-03 08:05:00,14.3,11.0,29.53,North,360,4.2,5.4,91,0.00,,,0.00,Rainwise IP-100,2013-02-03 13:05:00,
2013-02-03 08:11:00,14.4,11.0,29.53,North,360,2.6,5.6,91,0.00,,,0.00,Rainwise IP-100,2013-02-03 13:11:00,
2013-02-03 08:16:00,14.5,14.0,29.53,NW,315,0.0,4.9,91,0.00,,,0.00,Rainwise IP-100,2013-02-03 13:16:00,
2013-02-03 08:21:00,14.7,14.0,29.53,North,360,1.2,3.0,91,0.00,,,0.00,Rainwise IP-100,2013-02-03 13:21:00,
2013-02-03 08:26:00,14.8,14.0,29.53,North,360,0.0,2.6,91,0.00,,,0.00,Rainwise IP-100,2013-02-03 13:26:00,
2013-02-03 08:31:00,15.0,14.0,29.52,North,360,0.0,1.4,91,0.00,,,0.00,Rainwise IP-100,2013-02-03 13:31:00,
2013-02-03 08:36:00,15.1,14.0,29.53,ESE,112,0.0,1.4,90,0.00,,,0.00,Rainwise IP-100,2013-02-03 13:36:00,
2013-02-03 08:41:00,15.3,14.0,29.53,SSE,157,0.0,0.0,90,0.00,,,0.00,Rainwise IP-100,2013-02-03 13:41:00,
2013-02-03 08:46:00,15.6,14.0,29.53,SSW,202,0.0,2.3,89,0.00,,,0.00,Rainwise IP-100,2013-02-03 13:46:00,
2013-02-03 08:51:00,15.8,14.0,29.53,SW,225,0.0,2.6,89,0.00,,,0.00,Rainwise IP-100,2013-02-03 13:51:00,
2013-02-03 08:56:00,16.0,14.0,29.53,SW,225,0.0,1.4,89,0.00,,,0.00,Rainwise IP-100,2013-02-03 13:56:00,
2013-02-03 09:01:00,16.3,14.0,29.53,SSW,202,0.0,2.1,89,0.00,,,0.00,Rainwise IP-100,2013-02-03 14:01:00,
2013-02-03 09:06:00,16.5,16.0,29.53,SSW,202,2.1,2.3,89,0.00,,,0.00,Rainwise IP-100,2013-02-03 14:06:00,
2013-02-03 09:11:00,16.7,16.0,29.53,SSW,202,0.0,2.8,89,0.00,,,0.00,Rainwise IP-100,2013-02-03 14:11:00,
2013-02-03 09:16:00,17.1,16.0,29.53,SSE,157,1.2,4.0,89,0.00,,,0.00,Rainwise IP-100,2013-02-03 14:16:00,
2013-02-03 09:21:00,17.6,16.0,29.53,SW,225,1.4,2.6,90,0.00,,,0.00,Rainwise IP-100,2013-02-03 14:21:00,
2013-02-03 09:27:00,18.6,18.0,29.53,NNW,337,0.0,2.1,92,0.00,,,0.00,Rainwise IP-100,2013-02-03 14:27:00,
2013-02-03 09:32:00,19.4,18.0,29.53,SE,135,2.6,4.4,95,0.00,,,0.00,Rainwise IP-100,2013-02-03 14:32:00,
2013-02-03 09:37:00,18.8,18.0,29.53,SSW,202,5.6,7.5,93,0.00,,,0.00,Rainwise IP-100,2013-02-03 14:37:00,
2013-02-03 09:42:00,17.8,16.0,29.52,South,180,3.5,6.5,90,0.00,,,0.00,Rainwise IP-100,2013-02-03 14:42:00,
2013-02-03 09:47:00,17.7,16.0,29.53,South,180,4.4,5.6,88,0.00,,,0.00,Rainwise IP-100,2013-02-03 14:47:00,
2013-02-03 09:52:00,17.4,16.0,29.52,SSW,202,4.9,5.8,87,0.00,,,0.00,Rainwise IP-100,2013-02-03 14:52:00,
2013-02-03 09:57:00,17.2,16.0,29.52,SSW,202,6.1,7.0,86,0.00,,,0.00,Rainwise IP-100,2013-02-03 14:57:00,
2013-02-03 10:02:00,17.2,16.0,29.52,SSE,157,3.7,7.7,86,0.00,,,0.00,Rainwise IP-100,2013-02-03 15:02:00,
2013-02-03 10:07:00,17.3,16.0,29.52,SSE,157,0.0,6.8,86,0.00,,,0.00,Rainwise IP-100,2013-02-03 15:07:00,
2013-02-03 10:12:00,17.8,16.0,29.51,SE,135,2.3,5.6,87,0.00,,,0.00,Rainwise IP-100,2013-02-03 15:12:00,
2013-02-03 10:17:00,18.1,16.0,29.51,SSE,157,2.3,5.1,87,0.00,,,0.00,Rainwise IP-100,2013-02-03 15:17:00,
2013-02-03 10:22:00,18.2,16.0,29.51,WSW,247,5.4,5.4,86,0.00,,,0.00,Rainwise IP-100,2013-02-03 15:22:00,
2013-02-03 10:27:00,18.5,16.0,29.51,SSW,202,5.1,5.6,86,0.00,,,0.00,Rainwise IP-100,2013-02-03 15:27:00,
2013-02-03 10:32:00,18.7,18.0,29.51,SSE,157,2.8,6.5,87,0.00,,,0.00,Rainwise IP-100,2013-02-03 15:32:00,
2013-02-03 10:37:00,18.7,18.0,29.51,SW,225,0.0,5.1,87,0.00,,,0.00,Rainwise IP-100,2013-02-03 15:37:00,
2013-02-03 10:43:00,19.2,18.0,29.50,WSW,247,0.0,2.6,89,0.00,,,0.00,Rainwise IP-100,2013-02-03 15:43:00,
2013-02-03 10:48:00,19.5,18.0,29.50,SW,225,4.0,4.0,92,0.00,,,0.00,Rainwise IP-100,2013-02-03 15:48:00,
2013-02-03 10:53:00,19.7,18.0,29.50,SSW,202,1.6,4.7,91,0.00,,,0.00,Rainwise IP-100,2013-02-03 15:53:00,
2013-02-03 10:58:00,19.9,18.0,29.49,SW,225,0.0,3.7,91,0.00,,,0.00,Rainwise IP-100,2013-02-03 15:58:00,
2013-02-03 11:03:00,20.0,18.0,29.49,ENE,67,2.3,2.3,92,0.00,,,0.00,Rainwise IP-100,2013-02-03 16:03:00,
2013-02-03 11:08:00,20.5,18.0,29.49,NNE,22,4.7,7.9,91,0.00,,,0.00,Rainwise IP-100,2013-02-03 16:08:00,
2013-02-03 11:13:00,21.5,21.0,29.48,NW,315,0.0,6.5,88,0.00,,,0.00,Rainwise IP-100,2013-02-03 16:13:00,
2013-02-03 11:18:00,22.3,21.0,29.48,NNW,337,3.7,5.6,89,0.00,,,0.00,Rainwise IP-100,2013-02-03 16:18:00,
2013-02-03 11:23:00,22.5,21.0,29.47,North,360,5.6,9.1,89,0.00,,,0.00,Rainwise IP-100,2013-02-03 16:23:00,
2013-02-03 11:28:00,22.8,18.0,29.47,North,360,2.1,7.2,85,0.00,,,0.00,Rainwise IP-100,2013-02-03 16:28:00,
2013-02-03 11:33:00,22.9,18.0,29.46,NNE,22,1.9,7.7,85,0.00,,,0.00,Rainwise IP-100,2013-02-03 16:33:00,
2013-02-03 11:38:00,22.6,18.0,29.46,SW,225,3.7,6.8,83,0.00,,,0.00,Rainwise IP-100,2013-02-03 16:38:00,
2013-02-03 11:43:00,22.5,18.0,29.46,SSW,202,4.7,5.6,81,0.00,,,0.00,Rainwise IP-100,2013-02-03 16:43:00,
2013-02-03 11:48:00,22.6,18.0,29.46,South,180,1.2,6.1,80,0.00,,,0.00,Rainwise IP-100,2013-02-03 16:48:00,
2013-02-03 11:53:00,22.7,16.0,29.45,NE,45,4.7,5.8,79,0.00,,,0.00,Rainwise IP-100,2013-02-03 16:53:00,
2013-02-03 11:59:00,22.0,16.0,29.45,ENE,67,3.3,5.4,78,0.00,,,0.00,Rainwise IP-100,2013-02-03 16:59:00,
2013-02-03 12:04:00,21.7,16.0,29.44,NNE,22,2.3,6.5,75,0.00,,,0.00,Rainwise IP-100,2013-02-03 17:04:00,
2013-02-03 12:09:00,22.5,16.0,29.44,NNE,22,2.3,6.5,74,0.00,,,0.00,Rainwise IP-100,2013-02-03 17:09:00,
2013-02-03 12:14:00,23.1,16.0,29.43,NNE,22,5.6,8.4,73,0.00,,,0.00,Rainwise IP-100,2013-02-03 17:14:00,
2013-02-03 12:19:00,23.6,16.0,29.43,NNW,337,3.7,7.0,72,0.00,,,0.00,Rainwise IP-100,2013-02-03 17:19:00,
2013-02-03 12:24:00,24.4,16.0,29.43,NNW,337,2.8,6.8,71,0.00,,,0.00,Rainwise IP-100,2013-02-03 17:24:00,
2013-02-03 12:29:00,24.8,18.0,29.42,NNE,22,4.2,4.4,73,0.00,,,0.00,Rainwise IP-100,2013-02-03 17:29:00,
2013-02-03 12:30:00,24.8,18.0,29.42,ENE,67,5.1,5.6,73,0.00,,,0.00,Rainwise IP-100,2013-02-03 17:30:00,
2013-02-03 12:35:00,24.3,16.0,29.42,NNE,22,3.0,6.8,71,0.00,,,0.00,Rainwise IP-100,2013-02-03 17:35:00,
2013-02-03 12:40:00,24.5,18.0,29.42,NNE,22,1.4,7.5,69,0.00,,,0.00,Rainwise IP-100,2013-02-03 17:40:00,
2013-02-03 12:45:00,25.2,18.0,29.41,NNE,22,3.3,4.7,70,0.00,,,0.00,Rainwise IP-100,2013-02-03 17:45:00,
2013-02-03 12:50:00,25.3,18.0,29.41,North,360,2.8,5.1,70,0.00,,,0.00,Rainwise IP-100,2013-02-03 17:50:00,
2013-02-03 12:55:00,25.2,18.0,29.41,NNW,337,2.1,7.0,68,0.00,,,0.00,Rainwise IP-100,2013-02-03 17:55:00,
2013-02-03 13:00:00,25.2,16.0,29.40,North,360,7.9,7.9,66,0.00,,,0.00,Rainwise IP-100,2013-02-03 18:00:00,
2013-02-03 13:05:00,25.2,16.0,29.41,ENE,67,4.0,7.9,65,0.00,,,0.00,Rainwise IP-100,2013-02-03 18:05:00,
2013-02-03 13:10:00,24.8,16.0,29.40,ENE,67,4.2,4.2,65,0.00,,,0.00,Rainwise IP-100,2013-02-03 18:10:00,
2013-02-03 13:15:00,24.4,14.0,29.40,NE,45,5.1,5.4,65,0.00,,,0.00,Rainwise IP-100,2013-02-03 18:15:00,
2013-02-03 13:21:00,24.5,16.0,29.39,NE,45,3.7,6.5,64,0.00,,,0.00,Rainwise IP-100,2013-02-03 18:21:00,
2013-02-03 13:26:00,24.8,16.0,29.39,NNW,337,5.4,6.3,63,0.00,,,0.00,Rainwise IP-100,2013-02-03 18:26:00,
2013-02-03 13:31:00,25.4,16.0,29.39,NE,45,3.5,6.1,62,0.00,,,0.00,Rainwise IP-100,2013-02-03 18:31:00,
2013-02-03 13:36:00,26.0,16.0,29.39,NNE,22,3.3,6.8,61,0.00,,,0.00,Rainwise IP-100,2013-02-03 18:36:00,
2013-02-03 13:41:00,26.0,14.0,29.39,NNE,22,1.2,4.4,60,0.00,,,0.00,Rainwise IP-100,2013-02-03 18:41:00,
2013-02-03 13:46:00,26.0,14.0,29.38,ESE,112,2.3,3.7,60,0.00,,,0.00,Rainwise IP-100,2013-02-03 18:46:00,
2013-02-03 13:51:00,26.5,16.0,29.38,NNW,337,4.0,6.5,60,0.00,,,0.00,Rainwise IP-100,2013-02-03 18:51:00,
2013-02-03 13:56:00,26.6,16.0,29.37,NNE,22,1.4,5.8,59,0.00,,,0.00,Rainwise IP-100,2013-02-03 18:56:00,
2013-02-03 14:01:00,26.4,14.0,29.37,NNW,337,4.0,4.0,58,0.00,,,0.00,Rainwise IP-100,2013-02-03 19:01:00,
2013-02-03 14:06:00,26.7,16.0,29.37,SW,225,1.6,4.0,57,0.00,,,0.00,Rainwise IP-100,2013-02-03 19:06:00,
2013-02-03 14:11:00,26.8,14.0,29.36,NW,315,2.1,2.1,56,0.00,,,0.00,Rainwise IP-100,2013-02-03 19:11:00,
2013-02-03 14:16:00,26.4,14.0,29.37,NNE,22,2.6,4.4,56,0.00,,,0.00,Rainwise IP-100,2013-02-03 19:16:00,
2013-02-03 14:21:00,26.0,14.0,29.37,NNE,22,1.9,4.2,57,0.00,,,0.00,Rainwise IP-100,2013-02-03 19:21:00,
2013-02-03 14:26:00,26.1,14.0,29.36,North,360,1.6,3.7,57,0.00,,,0.00,Rainwise IP-100,2013-02-03 19:26:00,
2013-02-03 14:31:00,25.9,14.0,29.36,NE,45,3.5,4.0,56,0.00,,,0.00,Rainwise IP-100,2013-02-03 19:31:00,
2013-02-03 14:37:00,25.8,14.0,29.36,NNW,337,1.4,4.4,57,0.00,,,0.00,Rainwise IP-100,2013-02-03 19:37:00,
2013-02-03 14:42:00,26.1,14.0,29.36,NNE,22,2.8,2.8,57,0.00,,,0.00,Rainwise IP-100,2013-02-03 19:42:00,
2013-02-03 14:47:00,26.1,14.0,29.36,NNW,337,4.7,6.3,56,0.00,,,0.00,Rainwise IP-100,2013-02-03 19:47:00,
2013-02-03 14:52:00,26.2,14.0,29.36,NNW,337,0.0,5.4,56,0.00,,,0.00,Rainwise IP-100,2013-02-03 19:52:00,
2013-02-03 14:57:00,26.5,14.0,29.36,NNW,337,3.5,5.1,56,0.00,,,0.00,Rainwise IP-100,2013-02-03 19:57:00,
2013-02-03 15:02:00,26.2,14.0,29.36,North,360,4.9,7.7,56,0.00,,,0.00,Rainwise IP-100,2013-02-03 20:02:00,
2013-02-03 15:07:00,25.9,14.0,29.36,North,360,2.3,5.4,56,0.00,,,0.00,Rainwise IP-100,2013-02-03 20:07:00,
2013-02-03 15:12:00,26.1,14.0,29.36,NNW,337,0.0,4.7,56,0.00,,,0.00,Rainwise IP-100,2013-02-03 20:12:00,
2013-02-03 15:17:00,26.2,14.0,29.36,NNW,337,2.6,4.9,56,0.00,,,0.00,Rainwise IP-100,2013-02-03 20:17:00,
2013-02-03 15:22:00,26.3,14.0,29.36,NNW,337,3.3,5.1,56,0.00,,,0.00,Rainwise IP-100,2013-02-03 20:22:00,
2013-02-03 15:27:00,26.4,14.0,29.35,NNW,337,0.0,3.5,56,0.00,,,0.00,Rainwise IP-100,2013-02-03 20:27:00,
2013-02-03 15:32:00,26.4,14.0,29.35,ENE,67,1.2,1.9,55,0.00,,,0.00,Rainwise IP-100,2013-02-03 20:32:00,
2013-02-03 15:37:00,26.2,14.0,29.35,East,90,0.0,2.8,56,0.00,,,0.00,Rainwise IP-100,2013-02-03 20:37:00,
2013-02-03 15:42:00,26.2,14.0,29.35,SSW,202,1.6,3.7,56,0.00,,,0.00,Rainwise IP-100,2013-02-03 20:42:00,
2013-02-03 15:47:00,26.3,14.0,29.35,ESE,112,0.0,3.3,56,0.00,,,0.00,Rainwise IP-100,2013-02-03 20:47:00,
2013-02-03 15:53:00,26.3,14.0,29.35,ESE,112,0.0,1.9,56,0.00,,,0.00,Rainwise IP-100,2013-02-03 20:53:00,
2013-02-03 15:58:00,26.2,14.0,29.35,ESE,112,0.0,0.0,56,0.00,,,0.00,Rainwise IP-100,2013-02-03 20:58:00,
2013-02-03 16:03:00,26.1,14.0,29.35,ENE,67,3.3,3.3,56,0.00,,,0.00,Rainwise IP-100,2013-02-03 21:03:00,
2013-02-03 16:08:00,26.0,14.0,29.35,NE,45,0.0,4.4,57,0.00,,,0.00,Rainwise IP-100,2013-02-03 21:08:00,
2013-02-03 16:13:00,26.2,14.0,29.34,NE,45,0.0,2.1,57,0.00,,,0.00,Rainwise IP-100,2013-02-03 21:13:00,
2013-02-03 16:18:00,26.2,14.0,29.34,NE,45,0.0,1.2,57,0.00,,,0.00,Rainwise IP-100,2013-02-03 21:18:00,
2013-02-03 16:23:00,26.1,14.0,29.34,NE,45,0.0,0.0,56,0.00,,,0.00,Rainwise IP-100,2013-02-03 21:23:00,
2013-02-03 16:28:00,26.1,14.0,29.35,NE,45,0.0,1.4,56,0.00,,,0.00,Rainwise IP-100,2013-02-03 21:28:00,
2013-02-03 16:33:00,26.1,14.0,29.34,NE,45,0.0,1.2,56,0.00,,,0.00,Rainwise IP-100,2013-02-03 21:33:00,
2013-02-03 16:38:00,26.1,14.0,29.34,NNE,22,3.5,4.0,56,0.00,,,0.00,Rainwise IP-100,2013-02-03 21:38:00,
2013-02-03 16:43:00,26.0,14.0,29.34,NNE,22,2.1,4.4,56,0.00,,,0.00,Rainwise IP-100,2013-02-03 21:43:00,
2013-02-03 16:48:00,25.9,14.0,29.34,NNE,22,1.6,3.0,56,0.00,,,0.00,Rainwise IP-100,2013-02-03 21:48:00,
2013-02-03 16:53:00,25.7,14.0,29.34,NNE,22,0.0,2.1,56,0.00,,,0.00,Rainwise IP-100,2013-02-03 21:53:00,
2013-02-03 16:58:00,25.5,14.0,29.33,NNE,22,0.0,0.0,56,0.00,,,0.00,Rainwise IP-100,2013-02-03 21:58:00,
2013-02-03 17:03:00,25.3,14.0,29.33,NNE,22,0.0,0.0,57,0.00,,,0.00,Rainwise IP-100,2013-02-03 22:03:00,
2013-02-03 17:09:00,25.2,14.0,29.33,NNE,22,0.0,0.0,58,0.00,,,0.00,Rainwise IP-100,2013-02-03 22:09:00,
2013-02-03 17:14:00,25.0,14.0,29.33,NNE,22,0.0,0.0,59,0.00,,,0.00,Rainwise IP-100,2013-02-03 22:14:00,
2013-02-03 17:19:00,24.8,14.0,29.33,NNE,22,0.0,0.0,59,0.00,,,0.00,Rainwise IP-100,2013-02-03 22:19:00,
2013-02-03 17:24:00,24.6,14.0,29.32,NNE,22,0.0,0.0,60,0.00,,,0.00,Rainwise IP-100,2013-02-03 22:24:00,
2013-02-03 17:29:00,24.5,16.0,29.33,NNE,22,0.0,0.0,61,0.00,,,0.00,Rainwise IP-100,2013-02-03 22:29:00,
2013-02-03 17:34:00,24.4,14.0,29.33,NNE,22,0.0,0.0,62,0.00,,,0.00,Rainwise IP-100,2013-02-03 22:34:00,
2013-02-03 17:39:00,24.2,14.0,29.33,NNE,22,0.0,0.0,62,0.00,,,0.00,Rainwise IP-100,2013-02-03 22:39:00,
2013-02-03 17:44:00,23.7,14.0,29.33,NNW,337,2.8,2.8,62,0.00,,,0.00,Rainwise IP-100,2013-02-03 22:44:00,
2013-02-03 17:49:00,23.3,11.0,29.32,NNW,337,1.2,5.6,62,0.00,,,0.00,Rainwise IP-100,2013-02-03 22:49:00,
2013-02-03 17:54:00,23.2,14.0,29.32,NNW,337,0.0,3.5,63,0.00,,,0.00,Rainwise IP-100,2013-02-03 22:54:00,
2013-02-03 17:59:00,23.0,14.0,29.32,NNW,337,0.0,3.5,64,0.00,,,0.00,Rainwise IP-100,2013-02-03 22:59:00,
2013-02-03 18:04:00,22.6,14.0,29.32,NNW,337,0.0,1.2,65,0.00,,,0.00,Rainwise IP-100,2013-02-03 23:04:00,
2013-02-03 18:09:00,22.1,14.0,29.32,NNW,337,0.0,0.0,67,0.00,,,0.00,Rainwise IP-100,2013-02-03 23:09:00,
2013-02-03 18:14:00,21.7,14.0,29.32,NNW,337,1.4,2.6,68,0.00,,,0.00,Rainwise IP-100,2013-02-03 23:14:00,
2013-02-03 18:19:00,21.5,14.0,29.32,NNW,337,1.4,3.5,68,0.00,,,0.00,Rainwise IP-100,2013-02-03 23:19:00,
2013-02-03 18:25:00,21.4,11.0,29.32,NNW,337,3.3,4.4,68,0.00,,,0.00,Rainwise IP-100,2013-02-03 23:25:00,
2013-02-03 18:30:00,21.4,11.0,29.32,NNW,337,2.3,4.2,68,0.00,,,0.00,Rainwise IP-100,2013-02-03 23:30:00,
2013-02-03 18:35:00,21.3,11.0,29.32,NNW,337,4.2,4.2,68,0.00,,,0.00,Rainwise IP-100,2013-02-03 23:35:00,
2013-02-03 18:40:00,21.2,14.0,29.32,NNW,337,1.4,4.2,69,0.00,,,0.00,Rainwise IP-100,2013-02-03 23:40:00,
2013-02-03 18:45:00,21.2,14.0,29.31,NNW,337,0.0,2.6,69,0.00,,,0.00,Rainwise IP-100,2013-02-03 23:45:00,
2013-02-03 18:50:00,21.0,14.0,29.32,NNW,337,0.0,0.0,69,0.00,,,0.00,Rainwise IP-100,2013-02-03 23:50:00,
2013-02-03 18:55:00,20.8,14.0,29.31,NNW,337,0.0,0.0,70,0.00,,,0.00,Rainwise IP-100,2013-02-03 23:55:00,
2013-02-03 19:00:00,20.5,14.0,29.31,NNW,337,0.0,0.0,71,0.00,,,0.00,Rainwise IP-100,2013-02-04 00:00:00,
2013-02-03 19:05:00,20.4,14.0,29.31,NNW,337,0.0,0.0,72,0.00,,,0.00,Rainwise IP-100,2013-02-04 00:05:00,
2013-02-03 19:10:00,20.3,14.0,29.31,NNW,337,0.0,1.2,72,0.00,,,0.00,Rainwise IP-100,2013-02-04 00:10:00,
2013-02-03 19:15:00,20.2,14.0,29.31,NNW,337,0.0,1.4,72,0.00,,,0.00,Rainwise IP-100,2013-02-04 00:15:00,
2013-02-03 19:20:00,20.1,14.0,29.31,NNW,337,0.0,0.0,72,0.00,,,0.00,Rainwise IP-100,2013-02-04 00:20:00,
2013-02-03 19:25:00,20.0,14.0,29.31,NNW,337,0.0,1.4,73,0.00,,,0.00,Rainwise IP-100,2013-02-04 00:25:00,
2013-02-03 19:30:00,19.8,14.0,29.31,NNW,337,3.3,3.5,73,0.00,,,0.00,Rainwise IP-100,2013-02-04 00:30:00,
2013-02-03 19:35:00,19.7,14.0,29.31,NNW,337,1.9,3.3,73,0.00,,,0.00,Rainwise IP-100,2013-02-04 00:35:00,
2013-02-03 19:41:00,19.7,14.0,29.31,WNW,292,3.3,5.8,73,0.00,,,0.00,Rainwise IP-100,2013-02-04 00:41:00,
2013-02-03 19:46:00,19.9,14.0,29.31,WSW,247,1.4,4.4,73,0.00,,,0.00,Rainwise IP-100,2013-02-04 00:46:00,
2013-02-03 19:51:00,19.9,14.0,29.31,WSW,247,1.6,2.6,73,0.00,,,0.00,Rainwise IP-100,2013-02-04 00:51:00,
2013-02-03 19:56:00,19.9,14.0,29.31,WSW,247,2.6,3.7,73,0.00,,,0.00,Rainwise IP-100,2013-02-04 00:56:00,
2013-02-03 20:01:00,19.9,14.0,29.32,WSW,247,1.9,3.7,73,0.00,,,0.00,Rainwise IP-100,2013-02-04 01:01:00,
2013-02-03 20:06:00,19.7,14.0,29.31,WSW,247,0.0,2.3,74,0.00,,,0.00,Rainwise IP-100,2013-02-04 01:06:00,
2013-02-03 20:11:00,19.6,14.0,29.31,WSW,247,0.0,0.0,75,0.00,,,0.00,Rainwise IP-100,2013-02-04 01:11:00,
2013-02-03 20:16:00,19.5,14.0,29.32,WSW,247,0.0,0.0,75,0.00,,,0.00,Rainwise IP-100,2013-02-04 01:16:00,
2013-02-03 20:21:00,19.4,14.0,29.32,WSW,247,0.0,0.0,75,0.00,,,0.00,Rainwise IP-100,2013-02-04 01:21:00,
2013-02-03 20:26:00,19.3,14.0,29.32,WSW,247,0.0,0.0,75,0.00,,,0.00,Rainwise IP-100,2013-02-04 01:26:00,
2013-02-03 20:31:00,19.2,14.0,29.32,WSW,247,0.0,0.0,76,0.00,,,0.00,Rainwise IP-100,2013-02-04 01:31:00,
2013-02-03 20:36:00,19.2,14.0,29.32,WSW,247,0.0,1.2,76,0.00,,,0.00,Rainwise IP-100,2013-02-04 01:36:00,
2013-02-03 20:41:00,19.3,14.0,29.31,WSW,247,0.0,1.2,77,0.00,,,0.00,Rainwise IP-100,2013-02-04 01:41:00,
2013-02-03 20:46:00,19.5,14.0,29.32,WSW,247,0.0,0.0,77,0.00,,,0.00,Rainwise IP-100,2013-02-04 01:46:00,
2013-02-03 20:51:00,19.4,14.0,29.32,WSW,247,0.0,0.0,77,0.00,,,0.00,Rainwise IP-100,2013-02-04 01:51:00,
2013-02-03 20:57:00,19.3,14.0,29.32,WSW,247,0.0,0.0,77,0.00,,,0.00,Rainwise IP-100,2013-02-04 01:57:00,
2013-02-03 21:02:00,19.4,14.0,29.32,WSW,247,0.0,0.0,77,0.00,,,0.00,Rainwise IP-100,2013-02-04 02:02:00,
2013-02-03 21:07:00,19.5,16.0,29.32,WSW,247,0.0,0.0,78,0.00,,,0.00,Rainwise IP-100,2013-02-04 02:07:00,
2013-02-03 21:12:00,19.6,16.0,29.32,WSW,247,0.0,1.4,78,0.00,,,0.00,Rainwise IP-100,2013-02-04 02:12:00,
2013-02-03 21:17:00,19.8,16.0,29.31,WSW,247,0.0,0.0,78,0.00,,,0.00,Rainwise IP-100,2013-02-04 02:17:00,
2013-02-03 21:22:00,19.8,16.0,29.31,WSW,247,0.0,0.0,78,0.00,,,0.00,Rainwise IP-100,2013-02-04 02:22:00,
2013-02-03 21:27:00,19.6,16.0,29.31,WSW,247,0.0,0.0,78,0.00,,,0.00,Rainwise IP-100,2013-02-04 02:27:00,
2013-02-03 21:32:00,19.4,16.0,29.31,WSW,247,0.0,0.0,78,0.00,,,0.00,Rainwise IP-100,2013-02-04 02:32:00,
2013-02-03 21:37:00,19.3,16.0,29.31,WSW,247,0.0,1.2,79,0.00,,,0.00,Rainwise IP-100,2013-02-04 02:37:00,
2013-02-03 21:42:00,19.3,16.0,29.31,WSW,247,0.0,1.4,79,0.00,,,0.00,Rainwise IP-100,2013-02-04 02:42:00,
2013-02-03 21:47:00,19.3,16.0,29.31,WSW,247,0.0,1.2,79,0.00,,,0.00,Rainwise IP-100,2013-02-04 02:47:00,
2013-02-03 21:52:00,19.2,16.0,29.30,WSW,247,0.0,0.0,79,0.00,,,0.00,Rainwise IP-100,2013-02-04 02:52:00,
2013-02-03 21:57:00,19.0,16.0,29.30,WSW,247,0.0,1.2,80,0.00,,,0.00,Rainwise IP-100,2013-02-04 02:57:00,
2013-02-03 22:02:00,18.9,16.0,29.30,WSW,247,0.0,0.0,80,0.00,,,0.00,Rainwise IP-100,2013-02-04 03:02:00,
2013-02-03 22:07:00,18.9,16.0,29.30,WSW,247,0.0,0.0,80,0.00,,,0.00,Rainwise IP-100,2013-02-04 03:07:00,
2013-02-03 22:13:00,18.7,16.0,29.30,WSW,247,0.0,1.6,80,0.00,,,0.00,Rainwise IP-100,2013-02-04 03:13:00,
2013-02-03 22:18:00,18.7,16.0,29.30,WSW,247,0.0,1.2,81,0.00,,,0.00,Rainwise IP-100,2013-02-04 03:18:00,
2013-02-03 22:23:00,18.8,16.0,29.29,WSW,247,0.0,0.0,81,0.00,,,0.00,Rainwise IP-100,2013-02-04 03:23:00,
2013-02-03 22:28:00,18.8,16.0,29.29,WSW,247,0.0,0.0,81,0.00,,,0.00,Rainwise IP-100,2013-02-04 03:28:00,
2013-02-03 22:33:00,18.8,16.0,29.29,WSW,247,0.0,0.0,82,0.00,,,0.00,Rainwise IP-100,2013-02-04 03:33:00,
2013-02-03 22:38:00,18.9,16.0,29.29,WSW,247,0.0,1.4,82,0.00,,,0.00,Rainwise IP-100,2013-02-04 03:38:00,
2013-02-03 22:43:00,19.0,16.0,29.28,WSW,247,0.0,0.0,82,0.00,,,0.00,Rainwise IP-100,2013-02-04 03:43:00,
2013-02-03 22:48:00,18.9,16.0,29.28,WSW,247,0.0,1.2,82,0.00,,,0.00,Rainwise IP-100,2013-02-04 03:48:00,
2013-02-03 22:53:00,18.9,16.0,29.28,WSW,247,0.0,1.2,82,0.00,,,0.00,Rainwise IP-100,2013-02-04 03:53:00,
2013-02-03 22:58:00,18.9,16.0,29.28,WSW,247,1.2,1.2,82,0.00,,,0.00,Rainwise IP-100,2013-02-04 03:58:00,
2013-02-03 23:03:00,18.8,16.0,29.28,WSW,247,1.2,1.4,82,0.00,,,0.00,Rainwise IP-100,2013-02-04 04:03:00,
2013-02-03 23:08:00,18.9,16.0,29.28,WSW,247,0.0,1.4,82,0.00,,,0.00,Rainwise IP-100,2013-02-04 04:08:00,
2013-02-03 23:13:00,18.9,16.0,29.28,WSW,247,0.0,0.0,82,0.00,,,0.00,Rainwise IP-100,2013-02-04 04:13:00,
2013-02-03 23:18:00,18.9,16.0,29.28,WSW,247,0.0,0.0,82,0.00,,,0.00,Rainwise IP-100,2013-02-04 04:18:00,
2013-02-03 23:23:00,18.9,16.0,29.28,WSW,247,0.0,0.0,82,0.00,,,0.00,Rainwise IP-100,2013-02-04 04:23:00,
2013-02-03 23:29:00,18.8,16.0,29.28,WSW,247,0.0,0.0,82,0.00,,,0.00,Rainwise IP-100,2013-02-04 04:29:00,
2013-02-03 23:34:00,18.7,16.0,29.28,WSW,247,0.0,1.2,82,0.00,,,0.00,Rainwise IP-100,2013-02-04 04:34:00,
2013-02-03 23:39:00,18.8,16.0,29.28,WSW,247,0.0,0.0,83,0.00,,,0.00,Rainwise IP-100,2013-02-04 04:39:00,
2013-02-03 23:44:00,18.8,16.0,29.27,WSW,247,0.0,0.0,83,0.00,,,0.00,Rainwise IP-100,2013-02-04 04:44:00,
2013-02-03 23:49:00,18.8,16.0,29.27,WSW,247,0.0,0.0,83,0.00,,,0.00,Rainwise IP-100,2013-02-04 04:49:00,
2013-02-03 23:54:00,18.6,16.0,29.27,WSW,247,0.0,0.0,83,0.00,,,0.00,Rainwise IP-100,2013-02-04 04:54:00,
2013-02-03 23:59:00,18.5,16.0,29.27,WSW,247,0.0,0.0,83,0.00,,,0.00,Rainwise IP-100,2013-02-04 04:59:00,